Weather History for Belize / Phillip Goldston Intl. Airport, Belize

Change the Weather History Date:

Thursday, January 24, 2013

  Actual Average Record
Temperature  
Mean Temperature 72 °F -  
Max Temperature 77 °F - - ()
Min Temperature 68 °F - - ()
Cooling Degree Days 8    
Growing Degree Days 22 (Base 50)    
Moisture  
Dew Point 69 °F    
Average Humidity 87    
Maximum Humidity 94    
Minimum Humidity 75    
Precipitation  
Precipitation 0.04 in 0.11 in - ()
Sea Level Pressure  
Sea Level Pressure 30.15 in    
Wind  
Wind Speed 6 mph ()    
Max Wind Speed 13 mph    
Max Gust Speed -    
Visibility 8.0 miles    
Events Rain    
T = Trace of Precipitation, MM = Missing Value Source: Averaged Metar Reports

Daily Weather History Graph

Daily Weather History Graph

Search for Another Location

Airport:

Trip Planner

Search our weather history database for the weather conditions in past years. The results will help you decide how hot, cold, wet, or windy it might be!

Date:

Astronomy

Jan. 24, 2013 Rise Set
Actual Time 6:26 AM CST 5:44 PM CST
Civil Twilight 6:03 AM CST 6:07 PM CST
Nautical Twilight 5:37 AM CST 6:33 PM CST
Astronomical Twilight 5:11 AM CST 6:59 PM CST
Moon 3:50 PM CST (1/24) 4:19 AM CST (1/24)
Length of Visible Light 12h 03m
Length of Day
11h 17m
Waxing Gibbous, 94% of the Moon is Illuminated
Jan 24
Waxing Gibbous
Jan 26
Full
Feb 3
Last Quarter
Feb 10
New
Feb 17
First Quarter

Hourly Weather History & Observations

Time (CST) Temp. Dew Point Humidity Pressure Visibility Wind Dir Wind Speed Gust Speed Precip Events Conditions
12:00 AM 71 °F 69 °F 93% 30.16 in 12 mi NNW 4.6 mph - - Rain Light Rain Showers
3:00 AM 71 °F 69 °F 93% 30.12 in 6 mi NNW 5.8 mph - - Rain Light Rain
5:00 AM 69.8 °F 68.0 °F 94% 30.13 in 6.2 mi North 5.8 mph - N/A   Scattered Clouds
6:00 AM 69 °F 68 °F 94% 30.15 in 12 mi NW 4.6 mph - -   Partly Cloudy
6:00 AM 69.8 °F 68.0 °F 94% 30.15 in 6.2 mi NW 4.6 mph - N/A   Mostly Cloudy
7:00 AM 69.8 °F 68.0 °F 94% 30.16 in 6.2 mi North 5.8 mph - N/A   Mostly Cloudy
8:00 AM 69.8 °F 68.0 °F 94% 30.18 in 6.2 mi North 5.8 mph - N/A Rain Light Rain
9:00 AM 71 °F 69 °F 91% 30.20 in 12 mi North 6.9 mph - - Rain Light Rain
9:00 AM 71.6 °F 69.8 °F 94% 30.19 in 6.2 mi North 6.9 mph - N/A   Mostly Cloudy
10:00 AM 71.6 °F 69.8 °F 94% 30.20 in 6.2 mi NNW 9.2 mph - N/A Rain Light Rain Showers
11:00 AM 73.4 °F 69.8 °F 88% 30.18 in 6.2 mi NNW 11.5 mph - N/A   Mostly Cloudy
12:00 PM 76 °F 70 °F 78% 30.17 in 12 mi NNW 9.2 mph - -   Partly Cloudy
12:00 PM 77.0 °F 69.8 °F 78% 30.16 in 6.2 mi NNW 9.2 mph - N/A   Mostly Cloudy
1:00 PM 77.0 °F 69.8 °F 78% 30.14 in 6.2 mi NNW 12.7 mph - N/A   Mostly Cloudy
2:00 PM 75.2 °F 69.8 °F 83% 30.13 in 6.2 mi North 9.2 mph - N/A   Mostly Cloudy
3:00 PM 75 °F 69 °F 75% 30.13 in 12 mi North 11.5 mph - -   Mostly Cloudy
3:00 PM 75.2 °F 68.0 °F 78% 30.12 in 6.2 mi North 11.5 mph - N/A   Mostly Cloudy
4:00 PM 75.2 °F 69.8 °F 83% 30.12 in 6.2 mi NNW 8.1 mph - N/A   Mostly Cloudy
5:00 PM 73.4 °F 68.0 °F 83% 30.13 in 6.2 mi NNW 6.9 mph - N/A   Mostly Cloudy
6:00 PM 72 °F 68 °F 83% 30.14 in 12 mi NW 3.5 mph - - Rain Light Rain Showers
6:00 PM 71.6 °F 68.0 °F 88% 30.14 in 6.2 mi NW 3.5 mph - N/A   Mostly Cloudy
9:00 PM 70 °F 68 °F 91% 30.19 in 12 mi WNW 4.6 mph - - Rain Light Rain